ONEWEB-0123 (47269 NORAD) Tracking and Keplerian Element Data
This shows tracking and keplerian element data for the satellite.
Feedback or suggestion? Click here.
Element | Value |
Catalog | 47269 |
Name | ONEWEB-0123 |
Epoch Orbit | 176 |
Epoch Day | 60.91667824 |
Epoch Year | 2021 |
RAAN | 16.1387 |
Inclination | 87.6023 |
Eccentricity | 0.0009978 |
Argument of Perigee | 30.8489 |
Mean Anonmoly | 126.5817 |
Mean Motion | 13.96924048 |
Decay Rate | -0.00022425 |
L1 | 1 47269U 20100M 21060.91667824 -.00022425 00000-0 -16175-1 0 9991 |
L2 | 2 47269 87.6023 16.1387 0009978 30.8489 126.5817 13.96924048 1767 |
Live tracking and technical data element details for ONEWEB-0123 (NORAD 47269). ONEWEB-0123 can be tracked NOW for your location showing map with azimuth and elevation plus other details from your city location.
Track the satellite on the map from your city or location and see movement details for azimuth, elevation, latitude, longitude, range, height, and movement on the map or in text.
IsCatalogInMostPopularTable: catalog: 47269, numindb: 23
Update: records affected: 1
GetName: 47269 ONEWEB-0123
Hit Count: updated at: Tue, 02 Mar 2021 13:37:25 GMT